This is the latest recevied weather packets stored in our database for station/object I1SXT-13. If no packets are shown the sender has not sent any weather packets the latest 10 day(s).
| Time | Temp. | Humidity | Pressure | Rain* | Wind** | Luminosity | Snow |
|---|---|---|---|---|---|---|---|
| 1777577964 | 16.11° C | 33% | 1023.4 hPa | 0 mm | - | - | - |
| 1777576768 | 16.11° C | 37% | 1022.8 hPa | 0 mm | - | - | - |
| 1777576464 | 16.11° C | 36% | 1022.9 hPa | 0 mm | - | - | - |
| 1777576167 | 16.11° C | 41% | 1023.2 hPa | 0 mm | - | - | - |
| 1777575870 | 16.11° C | 39% | 1022.5 hPa | 0 mm | - | - | - |
| 1777575566 | 16.11° C | 42% | 1022.7 hPa | 0 mm | - | - | - |
| 1777575269 | 16.11° C | 43% | 1022.6 hPa | 0 mm | - | - | - |
| 1777574965 | 16.11° C | 40% | 1022.5 hPa | 0 mm | - | - | - |
| 1777574668 | 16.11° C | 43% | 1023 hPa | 0 mm | - | - | - |
| 1777574364 | 16.11° C | 46% | 1022.2 hPa | 0 mm | - | - | - |
| 1777574069 | 16.11° C | 41% | 1022.1 hPa | 0 mm | - | - | - |
| 1777573770 | 16.11° C | 48% | 1022.7 hPa | 0 mm | - | - | - |
| 1777573466 | 15.56° C | 50% | 1022.2 hPa | 0 mm | - | - | - |
| 1777573169 | 15.56° C | 47% | 1022.5 hPa | 0 mm | - | - | - |
| 1777572865 | 16.11° C | 48% | 1022 hPa | 0 mm | - | - | - |
| 1777572568 | 17.22° C | 47% | 1022.5 hPa | 0 mm | - | - | - |
| 1777572264 | 17.22° C | 43% | 1021.7 hPa | 0 mm | - | - | - |
| 1777571966 | 17.78° C | 42% | 1022.8 hPa | 0 mm | - | - | - |
| 1777571670 | 17.78° C | 39% | 1022.5 hPa | 0 mm | - | - | - |
| 1777571365 | 18.33° C | 42% | 1022 hPa | 0 mm | - | - | - |
| 1777571068 | 18.89° C | 39% | 1022 hPa | 0 mm | - | - | - |
| 1777570765 | 18.89° C | 37% | 1021.8 hPa | 0 mm | - | - | - |
| 1777570467 | 19.44° C | 38% | 1021.7 hPa | 0 mm | - | - | - |
| 1777570170 | 19.44° C | 39% | 1021.3 hPa | 0 mm | - | - | - |
| 1777569866 | 19.44° C | 37% | 1022 hPa | 0 mm | - | - | - |
* Rain since midnight (hover to see other rain measurements)
** Current wind speed in m/s (hover to see current wind gust speed)